AZQ YBAF-YBAF

Flight info

Callsign AZQ
Flight time N/A
Altitude 3000
Route CCT
Aircraft C172/L-SDFGRY/C

Departure

Time 2026-04-29 08:33
Airport Brisbane Archerfield Airport (YBAF)

Arrival

Time N/A
Airport Brisbane Archerfield Airport (YBAF)
Time Latitude Longitude Altitude Speed Heading
2026-04-29 08:28 -27.56972 152.99848 40 ft 0 kts 184°
2026-04-29 08:31 -27.56988 152.99849 40 ft 2 kts 176°
2026-04-29 08:31 -27.57048 152.99830 40 ft 9 kts 198°
2026-04-29 08:31 -27.57086 152.99905 40 ft 29 kts 108°
2026-04-29 08:32 -27.57197 153.00297 56 ft 70 kts 114°
2026-04-29 08:32 -27.57377 153.00825 268 ft 73 kts 115°
2026-04-29 08:32 -27.57591 153.01389 449 ft 77 kts 116°
2026-04-29 08:32 -27.57752 153.01991 591 ft 86 kts 112°
2026-04-29 08:33 -27.58026 153.02562 803 ft 83 kts 133°
2026-04-29 08:33 -27.58445 153.03003 992 ft 86 kts 140°
2026-04-29 08:33 -27.58941 153.03461 1037 ft 93 kts 143°
2026-04-29 08:33 -27.59460 153.03923 1050 ft 99 kts 144°
2026-04-29 08:34 -27.60017 153.04402 1050 ft 103 kts 144°
2026-04-29 08:34 -27.60607 153.04893 1052 ft 107 kts 144°
2026-04-29 08:34 -27.61219 153.05391 1052 ft 112 kts 146°
2026-04-29 08:34 -27.61859 153.05893 1045 ft 111 kts 146°
2026-04-29 08:35 -27.62501 153.06388 1049 ft 112 kts 147°
2026-04-29 08:35 -27.63168 153.06845 1044 ft 113 kts 163°
2026-04-29 08:35 -27.63928 153.06975 1059 ft 108 kts 171°
2026-04-29 08:35 -27.64675 153.07092 1168 ft 108 kts 171°
2026-04-29 08:36 -27.65426 153.07213 1259 ft 109 kts 169°
2026-04-29 08:36 -27.66168 153.07323 1358 ft 107 kts 172°
2026-04-29 08:36 -27.66902 153.07446 1458 ft 107 kts 170°
2026-04-29 08:36 -27.67640 153.07543 1557 ft 106 kts 171°
2026-04-29 08:37 -27.68361 153.07619 1653 ft 105 kts 171°
2026-04-29 08:37 -27.69049 153.07700 1745 ft 104 kts 171°
2026-04-29 08:37 -27.69765 153.07774 1844 ft 103 kts 169°
2026-04-29 08:37 -27.70475 153.07828 1947 ft 102 kts 171°
2026-04-29 08:38 -27.71152 153.07875 2050 ft 102 kts 171°
2026-04-29 08:38 -27.71847 153.07926 2144 ft 99 kts 170°
2026-04-29 08:38 -27.72536 153.07979 2251 ft 99 kts 171°
2026-04-29 08:38 -27.73226 153.08046 2348 ft 99 kts 171°
2026-04-29 08:39 -27.73911 153.08103 2446 ft 99 kts 170°
2026-04-29 08:39 -27.74592 153.08150 2543 ft 100 kts 171°
2026-04-29 08:39 -27.75280 153.08189 2647 ft 99 kts 171°
2026-04-29 08:39 -27.75958 153.08221 2744 ft 96 kts 171°
2026-04-29 08:40 -27.76623 153.08251 2844 ft 96 kts 171°
2026-04-29 08:40 -27.77301 153.08277 2949 ft 99 kts 171°
2026-04-29 08:40 -27.77995 153.08303 3014 ft 101 kts 171°
2026-04-29 08:40 -27.78708 153.08330 3023 ft 103 kts 171°
2026-04-29 08:41 -27.79432 153.08365 3029 ft 106 kts 171°
2026-04-29 08:41 -27.80173 153.08402 3029 ft 107 kts 170°
2026-04-29 08:41 -27.80905 153.08435 3025 ft 106 kts 171°
2026-04-29 08:41 -27.81638 153.08461 3031 ft 103 kts 171°
2026-04-29 08:42 -27.82347 153.08487 3028 ft 100 kts 171°
2026-04-29 08:42 -27.83044 153.08512 3034 ft 102 kts 171°
2026-04-29 08:42 -27.83777 153.08536 3037 ft 107 kts 171°
2026-04-29 08:42 -27.84525 153.08559 3035 ft 108 kts 171°
2026-04-29 08:43 -27.85285 153.08588 3039 ft 110 kts 171°
2026-04-29 08:43 -27.86050 153.08622 3037 ft 110 kts 171°
2026-04-29 08:43 -27.86795 153.08653 3035 ft 106 kts 171°
2026-04-29 08:43 -27.87537 153.08678 3038 ft 107 kts 171°
2026-04-29 08:44 -27.88284 153.08700 3038 ft 108 kts 171°
2026-04-29 08:44 -27.89037 153.08730 3033 ft 108 kts 168°
2026-04-29 08:44 -27.89766 153.08803 3026 ft 100 kts 167°
2026-04-29 08:44 -27.90433 153.08862 3024 ft 94 kts 168°
2026-04-29 08:45 -27.91072 153.08907 3023 ft 91 kts 168°
2026-04-29 08:45 -27.91698 153.08945 3020 ft 90 kts 168°
2026-04-29 08:45 -27.92324 153.08988 3023 ft 90 kts 168°
2026-04-29 08:45 -27.92945 153.09047 3021 ft 91 kts 168°
2026-04-29 08:46 -27.93572 153.08974 3031 ft 100 kts 201°
2026-04-29 08:46 -27.94141 153.08530 3042 ft 97 kts 192°
2026-04-29 08:46 -27.94766 153.08367 3038 ft 88 kts 165°
2026-04-29 08:46 -27.95379 153.08438 3039 ft 89 kts 166°
2026-04-29 08:47 -27.95989 153.08525 3034 ft 87 kts 165°
2026-04-29 08:47 -27.96589 153.08625 3033 ft 87 kts 163°
2026-04-29 08:47 -27.97186 153.08731 3030 ft 86 kts 164°
2026-04-29 08:47 -27.97772 153.08843 3044 ft 90 kts 163°
2026-04-29 08:48 -27.98393 153.08965 3188 ft 92 kts 162°
2026-04-29 08:48 -27.99037 153.09086 3317 ft 95 kts 162°
2026-04-29 08:48 -27.99677 153.09212 3445 ft 96 kts 162°
2026-04-29 08:48 -28.00332 153.09340 3566 ft 96 kts 162°
2026-04-29 08:49 -28.00984 153.09468 3681 ft 93 kts 160°
2026-04-29 08:49 -28.01608 153.09590 3799 ft 89 kts 161°
2026-04-29 08:49 -28.02220 153.09714 3905 ft 88 kts 158°
2026-04-29 08:49 -28.02788 153.09822 4047 ft 83 kts 160°
2026-04-29 08:50 -28.03403 153.09950 4048 ft 94 kts 162°
2026-04-29 08:50 -28.04049 153.10076 4040 ft 93 kts 162°
2026-04-29 08:50 -28.04681 153.10201 4033 ft 93 kts 162°
2026-04-29 08:50 -28.05316 153.10326 4035 ft 90 kts 161°
2026-04-29 08:51 -28.05939 153.10447 4077 ft 99 kts 159°
2026-04-29 08:51 -28.06639 153.10590 4048 ft 103 kts 163°
2026-04-29 08:51 -28.07340 153.10728 4051 ft 102 kts 163°
2026-04-29 08:51 -28.08041 153.10865 4048 ft 103 kts 162°
2026-04-29 08:52 -28.08732 153.10999 4045 ft 101 kts 163°
2026-04-29 08:52 -28.09426 153.11139 4042 ft 101 kts 162°
2026-04-29 08:52 -28.10112 153.11276 4040 ft 99 kts 163°
2026-04-29 08:52 -28.10782 153.11406 4052 ft 97 kts 162°
2026-04-29 08:53 -28.11456 153.11541 4045 ft 99 kts 162°
2026-04-29 08:53 -28.12141 153.11677 4037 ft 100 kts 162°
2026-04-29 08:53 -28.12815 153.11813 4041 ft 98 kts 162°
2026-04-29 08:53 -28.13479 153.11944 4031 ft 93 kts 163°
2026-04-29 08:54 -28.14156 153.12080 4075 ft 101 kts 163°
2026-04-29 08:54 -28.14861 153.12217 4038 ft 106 kts 163°
2026-04-29 08:54 -28.15570 153.12357 4054 ft 100 kts 163°
2026-04-29 08:54 -28.16242 153.12491 4260 ft 96 kts 163°
2026-04-29 08:55 -28.16900 153.12627 4485 ft 96 kts 162°
2026-04-29 08:55 -28.17519 153.12744 4714 ft 84 kts 165°
2026-04-29 08:55 -28.18059 153.12853 4950 ft 73 kts 163°
2026-04-29 08:55 -28.18525 153.12946 5171 ft 63 kts 160°
2026-04-29 08:56 -28.18921 153.13027 5378 ft 53 kts 159°
2026-04-29 08:56 -28.19252 153.13096 5571 ft 45 kts 158°
2026-04-29 08:56 -28.19572 153.13164 5699 ft 52 kts 159°
2026-04-29 08:56 -28.19956 153.13237 5844 ft 61 kts 160°
2026-04-29 08:57 -28.20418 153.13323 6002 ft 73 kts 161°
2026-04-29 08:57 -28.20971 153.13437 6064 ft 90 kts 162°
2026-04-29 08:57 -28.21612 153.13560 6060 ft 97 kts 163°
2026-04-29 08:57 -28.22291 153.13695 6059 ft 100 kts 163°
2026-04-29 08:58 -28.22961 153.13825 6060 ft 96 kts 162°
2026-04-29 08:58 -28.23612 153.13953 6053 ft 94 kts 162°
2026-04-29 08:58 -28.24235 153.14075 6042 ft 87 kts 162°
2026-04-29 08:58 -28.24805 153.14191 6042 ft 84 kts 162°
2026-04-29 08:59 -28.25386 153.14308 6052 ft 86 kts 162°
2026-04-29 08:59 -28.25985 153.14425 6021 ft 83 kts 164°
2026-04-29 08:59 -28.26545 153.14539 6066 ft 86 kts 163°
2026-04-29 08:59 -28.27179 153.14672 6057 ft 93 kts 161°
2026-04-29 09:00 -28.27810 153.14791 6068 ft 92 kts 161°
2026-04-29 09:00 -28.28470 153.14919 6062 ft 96 kts 161°
2026-04-29 09:00 -28.29145 153.15056 6063 ft 100 kts 163°
2026-04-29 09:00 -28.29819 153.15189 6069 ft 98 kts 162°
2026-04-29 09:01 -28.30488 153.15319 6065 ft 100 kts 161°
2026-04-29 09:01 -28.31182 153.15458 6066 ft 102 kts 162°
2026-04-29 09:01 -28.31882 153.15598 6070 ft 103 kts 163°
2026-04-29 09:01 -28.32589 153.15740 6061 ft 102 kts 163°
2026-04-29 09:02 -28.33282 153.15876 6054 ft 99 kts 162°
2026-04-29 09:02 -28.33951 153.16008 6052 ft 95 kts 161°
2026-04-29 09:02 -28.34602 153.16140 6052 ft 95 kts 162°
2026-04-29 09:02 -28.35244 153.16268 6049 ft 94 kts 162°
2026-04-29 09:03 -28.35869 153.16392 6056 ft 92 kts 162°
2026-04-29 09:03 -28.36500 153.16518 6054 ft 92 kts 162°
2026-04-29 09:03 -28.37125 153.16643 6052 ft 91 kts 161°
2026-04-29 09:03 -28.37746 153.16768 6060 ft 91 kts 161°
2026-04-29 09:04 -28.38369 153.16892 6058 ft 91 kts 162°
2026-04-29 09:04 -28.38990 153.17016 6063 ft 91 kts 161°
2026-04-29 09:04 -28.39616 153.17140 6062 ft 91 kts 162°
2026-04-29 09:04 -28.40223 153.17261 6067 ft 93 kts 162°
2026-04-29 09:05 -28.40865 153.17390 6069 ft 95 kts 162°
2026-04-29 09:05 -28.41514 153.17519 6072 ft 97 kts 162°
2026-04-29 09:05 -28.42176 153.17651 6068 ft 96 kts 162°
2026-04-29 09:05 -28.42830 153.17782 6061 ft 95 kts 161°
2026-04-29 09:06 -28.43468 153.17908 6062 ft 92 kts 163°
2026-04-29 09:06 -28.44105 153.18034 6060 ft 94 kts 163°
2026-04-29 09:06 -28.44742 153.18164 6060 ft 92 kts 164°
2026-04-29 09:06 -28.45378 153.18291 6064 ft 94 kts 164°
2026-04-29 09:07 -28.46025 153.18419 6065 ft 95 kts 164°
2026-04-29 09:07 -28.46671 153.18549 6063 ft 94 kts 164°
2026-04-29 09:07 -28.47292 153.18671 6063 ft 91 kts 163°
2026-04-29 09:07 -28.47921 153.18799 6066 ft 93 kts 163°
2026-04-29 09:08 -28.48568 153.18928 6070 ft 95 kts 163°
2026-04-29 09:08 -28.49228 153.19059 6076 ft 97 kts 163°
2026-04-29 09:08 -28.49892 153.19192 6077 ft 98 kts 164°
2026-04-29 09:08 -28.50564 153.19326 6076 ft 98 kts 163°
2026-04-29 09:09 -28.51235 153.19460 6071 ft 98 kts 162°
2026-04-29 09:09 -28.51898 153.19592 6072 ft 96 kts 162°
2026-04-29 09:09 -28.52560 153.19724 6070 ft 96 kts 163°
2026-04-29 09:09 -28.53206 153.19854 6070 ft 96 kts 164°
2026-04-29 09:10 -28.53868 153.19986 6067 ft 97 kts 163°
2026-04-29 09:10 -28.54526 153.20118 6069 ft 96 kts 163°
2026-04-29 09:10 -28.55184 153.20249 6071 ft 96 kts 163°
2026-04-29 09:10 -28.55825 153.20377 6070 ft 96 kts 164°
2026-04-29 09:11 -28.56483 153.20509 6068 ft 96 kts 163°
2026-04-29 09:11 -28.57143 153.20642 6069 ft 97 kts 163°
2026-04-29 09:11 -28.57807 153.20775 6070 ft 97 kts 164°
2026-04-29 09:11 -28.58465 153.20906 6073 ft 98 kts 163°
2026-04-29 09:12 -28.59117 153.21036 6075 ft 98 kts 163°
2026-04-29 09:12 -28.59789 153.21171 6077 ft 98 kts 163°
2026-04-29 09:12 -28.60458 153.21304 6077 ft 97 kts 163°
2026-04-29 09:12 -28.61100 153.21433 6077 ft 98 kts 164°
2026-04-29 09:13 -28.61785 153.21570 6077 ft 98 kts 163°
2026-04-29 09:13 -28.62461 153.21706 6075 ft 99 kts 164°
2026-04-29 09:13 -28.62908 153.21795 6074 ft 98 kts 164°
2026-04-29 09:13 -28.63774 153.21967 6063 ft 93 kts 164°
2026-04-29 09:14 -28.64188 153.22053 6067 ft 95 kts 163°
2026-04-29 09:14 -28.65066 153.22228 6070 ft 96 kts 164°
2026-04-29 09:14 -28.65713 153.22358 6069 ft 96 kts 164°
2026-04-29 09:14 -28.66373 153.22490 6066 ft 96 kts 165°
2026-04-29 09:15 -28.67023 153.22620 6071 ft 93 kts 164°
2026-04-29 09:15 -28.67653 153.22748 6072 ft 96 kts 163°
2026-04-29 09:15 -28.68318 153.22880 6071 ft 97 kts 163°
2026-04-29 09:15 -28.68761 153.22970 6073 ft 98 kts 163°
2026-04-29 09:16 -28.69431 153.23103 6069 ft 97 kts 164°
2026-04-29 09:16 -28.70296 153.23277 6068 ft 96 kts 164°
2026-04-29 09:16 -28.70942 153.23411 6070 ft 92 kts 163°
2026-04-29 09:16 -28.71583 153.23536 6073 ft 95 kts 163°
2026-04-29 09:17 -28.72238 153.23667 6075 ft 96 kts 164°
2026-04-29 09:17 -28.72885 153.23797 6076 ft 94 kts 163°
2026-04-29 09:17 -28.73317 153.23884 6080 ft 96 kts 164°
2026-04-29 09:17 -28.73986 153.24018 6085 ft 98 kts 164°
2026-04-29 09:18 -28.74668 153.24154 6077 ft 100 kts 164°
2026-04-29 09:18 -28.75350 153.24291 6075 ft 99 kts 164°
2026-04-29 09:18 -28.76248 153.24471 6075 ft 99 kts 164°
2026-04-29 09:18 -28.76947 153.24612 5998 ft 104 kts 164°
2026-04-29 09:19 -28.77428 153.24711 5953 ft 105 kts 164°
2026-04-29 09:19 -28.78150 153.24853 5887 ft 108 kts 165°
2026-04-29 09:19 -28.79147 153.25050 5749 ft 107 kts 165°
2026-04-29 09:19 -28.79630 153.25146 5662 ft 106 kts 164°
2026-04-29 09:20 -28.80340 153.25316 5445 ft 109 kts 163°
2026-04-29 09:20 -28.81120 153.25324 5200 ft 114 kts 182°
2026-04-29 09:20 -28.81902 153.25034 4851 ft 121 kts 194°
2026-04-29 09:20 -28.82674 153.24735 4585 ft 113 kts 180°
2026-04-29 09:21 -28.83680 153.24892 4129 ft 112 kts 161°
2026-04-29 09:21 -28.84371 153.25153 3854 ft 106 kts 148°
2026-04-29 09:21 -28.84782 153.25505 3532 ft 111 kts 134°
2026-04-29 09:21 -28.85271 153.26477 3047 ft 105 kts 104°
2026-04-29 09:22 -28.85258 153.27032 2780 ft 108 kts 87°
2026-04-29 09:22 -28.85049 153.27831 2402 ft 113 kts 68°
2026-04-29 09:22 -28.84419 153.28444 1977 ft 127 kts 31°
2026-04-29 09:22 -28.83600 153.28513 1648 ft 134 kts 354°
2026-04-29 09:23 -28.82737 153.28220 1453 ft 124 kts 346°
2026-04-29 09:23 -28.81973 153.27927 1395 ft 110 kts 345°
2026-04-29 09:23 -28.81261 153.27650 1253 ft 108 kts 345°
2026-04-29 09:23 -28.80594 153.27300 1148 ft 105 kts 323°
2026-04-29 09:24 -28.80213 153.26652 1025 ft 102 kts 282°
2026-04-29 09:24 -28.80133 153.25882 943 ft 93 kts 271°
2026-04-29 09:24 -28.80229 153.25234 825 ft 78 kts 236°
2026-04-29 09:24 -28.80648 153.24908 653 ft 79 kts 182°
2026-04-29 09:25 -28.81156 153.24951 521 ft 68 kts 163°
2026-04-29 09:25 -28.81578 153.25130 365 ft 66 kts 156°
2026-04-29 09:25 -28.81992 153.25328 217 ft 62 kts 156°
2026-04-29 09:25 -28.82383 153.25517 62 ft 60 kts 156°
2026-04-29 09:26 -28.82701 153.25668 35 ft 38 kts 160°
2026-04-29 09:26 -28.83045 153.25833 40 ft 73 kts 156°
2026-04-29 09:26 -28.83537 153.26067 210 ft 82 kts 156°
2026-04-29 09:26 -28.84037 153.26299 420 ft 82 kts 171°
2026-04-29 09:27 -28.84341 153.25864 663 ft 83 kts 294°
2026-04-29 09:27 -28.84079 153.25295 914 ft 81 kts 290°
2026-04-29 09:27 -28.83786 153.24691 1057 ft 90 kts 294°
2026-04-29 09:27 -28.83670 153.23993 1188 ft 94 kts 245°
2026-04-29 09:28 -28.83849 153.23234 1344 ft 105 kts 252°
2026-04-29 09:28 -28.84056 153.22392 1484 ft 116 kts 249°
2026-04-29 09:28 -28.84284 153.21526 1626 ft 117 kts 247°
2026-04-29 09:28 -28.84526 153.20616 1749 ft 121 kts 247°
2026-04-29 09:29 -28.84772 153.19699 1880 ft 122 kts 246°
2026-04-29 09:29 -28.85284 153.17825 2135 ft 126 kts 245°
2026-04-29 09:29 -28.85544 153.16872 2261 ft 126 kts 245°
2026-04-29 09:30 -28.85804 153.15924 2383 ft 125 kts 245°
2026-04-29 09:30 -28.86064 153.14976 2505 ft 125 kts 246°
2026-04-29 09:30 -28.86320 153.14035 2631 ft 124 kts 246°
2026-04-29 09:30 -28.86578 153.13091 2754 ft 124 kts 245°
2026-04-29 09:31 -28.86829 153.12168 2881 ft 123 kts 245°
2026-04-29 09:31 -28.87081 153.11243 3003 ft 122 kts 244°
2026-04-29 09:31 -28.87336 153.10315 3079 ft 126 kts 244°
2026-04-29 09:31 -28.87615 153.09317 3013 ft 137 kts 245°
2026-04-29 09:32 -28.87907 153.08283 2933 ft 131 kts 245°
2026-04-29 09:32 -28.88163 153.07332 2801 ft 121 kts 245°
2026-04-29 09:32 -28.88405 153.06428 2669 ft 117 kts 245°
2026-04-29 09:32 -28.88688 153.05566 2473 ft 115 kts 229°
2026-04-29 09:33 -28.89223 153.04999 2285 ft 102 kts 195°
2026-04-29 09:33 -28.89870 153.04973 2097 ft 90 kts 153°
2026-04-29 09:33 -28.90297 153.05494 1824 ft 97 kts 114°
2026-04-29 09:33 -28.90471 153.06215 1684 ft 93 kts 109°
2026-04-29 09:34 -28.90631 153.06956 1498 ft 99 kts 107°
2026-04-29 09:34 -28.90689 153.07753 1242 ft 105 kts 89°
2026-04-29 09:34 -28.90386 153.08529 983 ft 110 kts 48°
2026-04-29 09:34 -28.89731 153.08987 785 ft 107 kts 28°
2026-04-29 09:35 -28.89081 153.09217 717 ft 96 kts 360°
2026-04-29 09:35 -28.88610 153.08845 606 ft 83 kts 274°
2026-04-29 09:35 -28.88556 153.08169 494 ft 76 kts 273°
2026-04-29 09:35 -28.88477 153.07607 359 ft 71 kts 278°
2026-04-29 09:36 -28.88361 153.07050 215 ft 74 kts 279°
2026-04-29 09:36 -28.88229 153.06487 71 ft 71 kts 280°
2026-04-29 09:36 -28.88122 153.06048 67 ft 45 kts 286°
2026-04-29 09:36 -28.88053 153.05765 82 ft 31 kts 285°
2026-04-29 09:37 -28.87995 153.05557 82 ft 25 kts 282°
2026-04-29 09:37 -28.87952 153.05471 84 ft 8 kts 33°
2026-04-29 09:37 -28.87899 153.05490 86 ft 10 kts 339°
2026-04-29 09:37 -28.87884 153.05462 86 ft 0 kts 287°
2026-04-29 09:42 -28.87904 153.05465 88 ft 11 kts 137°
2026-04-29 09:42 -28.88000 153.05548 85 ft 26 kts 105°
2026-04-29 09:42 -28.88094 153.05931 89 ft 69 kts 109°
2026-04-29 09:43 -28.88212 153.06491 254 ft 79 kts 108°